[[{"header":{"parameterUnit":"m.s-1","parameterCategory":1,"la1":30.2991,"la2":30.254,"lo1":-89.0895,"lo2":-89.0444,"dy":0.0017,"dx":0.0017,"nx":28,"ny":28,"refTime":"2024-02-21T09:00:00:Z","depth":0,"parameterNumber":2,"parameterNumberName":"U-component_of_WINDS"},"data":[0,0,0,0,0,0,0,0,0,0,0,0,0,0,0,0,0,0,0,0,0,0,0,0,0,0,0,0,0,0,0,0,0,0,0,0,0,0,0,0,0,0,0,0,0,0,0,0,0,0,0,0,0,0,0,0,0,0,0.3105,0.3105,0,0.308,0.308,0.3079,0.3048,0.3047,0.3047,0.3046,0.3021,0.302,0.302,0,0,0,0,0,0,0,0,0,0,0,0,0,0.3125,0.3124,0.3105,0.3105,0.3104,0.308,0.308,0.3079,0.3048,0.3047,0.3046,0.3046,0.3021,0.302,0.302,0,0,0,0,0,0,0,0,0,0,0,0,0,0.311,0.3124,0.3105,0.3086,0.3084,0.308,0.308,0.3079,0.3048,0.3047,0.3046,0.3046,0.3021,0.302,0.302,0.3034,0,0,0.3019,0.3019,0,0,0,0,0,0,0,0,0.311,0.3109,0.3089,0.3087,0.3085,0.3066,0.3077,0.3064,0.3048,0.3061,0.3046,0.3045,0.3036,0.3035,0.3032,0.3033,0.3031,0.3019,0.3019,0.3019,0.3019,0,0,0,0,0,0,0,0.3112,0.311,0.3095,0.3089,0.3086,0.3078,0.3075,0.3075,0.3054,0.306,0.3058,0.3055,0.3035,0.3032,0.3031,0.3031,0.3019,0.3019,0.3019,0.3019,0.3041,0.3042,0,0,0,0,0,0,0.3116,0.3111,0.3096,0.3094,0.3096,0.3078,0.3075,0.3073,0.3053,0.305,0.3056,0.3054,0.3033,0.3031,0.303,0.3044,0.3019,0.3019,0.3018,0.3041,0.3041,0.3042,0,0,0,0,0,0,0.3116,0.3115,0.3097,0.3102,0.3099,0.3079,0.3077,0.3073,0.307,0.305,0.3046,0.3057,0.3032,0.303,0.3033,0.3043,0.3018,0.3018,0.304,0.3041,0.3042,0.3074,0,0,0,0,0,0,0.3117,0.3115,0.312,0.3102,0.3099,0.3101,0.3077,0.3073,0.3069,0.3066,0.305,0.3047,0.3032,0.3034,0.3033,0.3042,0.3018,0.3039,0.304,0.3042,0.3072,0.3076,0.308,0,0,0,0,0,0.3118,0.313,0.312,0.3119,0.3105,0.3101,0.3099,0.3082,0.307,0.3075,0.3063,0.3047,0.3042,0.3034,0.3033,0.3043,0.3038,0.304,0.3041,0.307,0.3075,0.3079,0,0,0,0,0,0,0.315,0.3127,0.3117,0.3124,0.3115,0.3096,0.3102,0.3088,0.3082,0.3079,0.3058,0.3054,0.306,0.3051,0.3043,0.3054,0.3038,0.3039,0.306,0.3065,0.3068,0.3071,0.3018,0,0,0,0,0,0.3157,0.3156,0.3137,0.3145,0.3141,0.3122,0.312,0.3107,0.3097,0.3093,0.3081,0.3071,0.3067,0.3065,0.3061,0.307,0.3066,0.3076,0.308,0.3083,0.3085,0.3089,0.3094,0.3048,0.3048,0.3048,0,0,0.3174,0.3161,0.3162,0.3151,0.3143,0.3142,0.3119,0.312,0.3119,0.3093,0.3095,0.3085,0.3073,0.3079,0.3081,0.3072,0.3097,0.3086,0.3088,0.3088,0.3092,0.3096,0.31,0.3049,0.3049,0.3049,0,0,0.3203,0.3194,0.32,0.3191,0.3179,0.3166,0.3167,0.3151,0.3143,0.3145,0.3125,0.3124,0.3118,0.311,0.3105,0.3131,0.3117,0.313,0.3151,0.3155,0.3159,0.3162,0.3171,0.3175,0.3132,0.3132,0.3132,0,0.3225,0.3224,0.3204,0.3206,0.3201,0.3178,0.3183,0.3176,0.3163,0.316,0.315,0.3142,0.3132,0.3136,0.3143,0.314,0.314,0.3132,0.316,0.3163,0.3165,0.3174,0.3178,0.3134,0.3134,0.3134,0.3133,0,0.3251,0.325,0.3256,0.3244,0.324,0.3244,0.3225,0.3223,0.3211,0.3199,0.32,0.3188,0.318,0.318,0.3168,0.3182,0.3177,0.3164,0.3147,0.3172,0.3179,0.3183,0.3136,0.3136,0.3135,0.3135,0,0,0.3301,0.3277,0.328,0.3274,0.3258,0.3257,0.3259,0.3251,0.3251,0.3242,0.3243,0.3238,0.3226,0.3221,0.3207,0.3211,0.3232,0.3197,0.3196,0.3204,0.3247,0.3258,0.3262,0.3222,0.3223,0.3223,0.3248,0,0.3327,0.333,0.3313,0.332,0.3319,0.3296,0.3298,0.3288,0.3277,0.3275,0.3262,0.3259,0.3243,0.3239,0.3242,0.3229,0.3241,0.3227,0.3224,0.3224,0.3228,0.3266,0.3277,0.3301,0.3251,0.3252,0.3252,0,0.3359,0.3352,0.336,0.3343,0.3342,0.3344,0.3336,0.3333,0.3322,0.3313,0.3307,0.3291,0.3292,0.3275,0.3276,0.3267,0.3265,0.3258,0.3259,0.3258,0.324,0.3267,0.3309,0.3313,0.3257,0.3256,0.3256,0,0.3395,0.3387,0.3391,0.3386,0.3367,0.3369,0.3361,0.3348,0.3345,0.3337,0.3335,0.3328,0.3324,0.3318,0.3301,0.3291,0.3304,0.3286,0.3297,0.3298,0.3301,0.3302,0.3344,0.3299,0.3299,0.3299,0.3299,0,0.3427,0.3432,0.3406,0.3409,0.3414,0.3393,0.3399,0.3389,0.3378,0.3378,0.3357,0.3357,0.3334,0.3332,0.3318,0.3321,0.3319,0.3312,0.3309,0.3314,0.3315,0.3313,0.3311,0.33,0.33,0.33,0.3299,0,0.3468,0.3451,0.3453,0.3434,0.343,0.3435,0.3419,0.342,0.3407,0.3407,0.3406,0.3386,0.3382,0.3364,0.3355,0.3346,0.3353,0.3346,0.3357,0.3355,0.3368,0.3367,0.341,0.3415,0.3367,0.3367,0.3368,0,0.349,0.3493,0.3475,0.3473,0.3466,0.3464,0.346,0.344,0.3437,0.3424,0.3426,0.3421,0.3415,0.3409,0.3394,0.3387,0.338,0.3395,0.3379,0.3384,0.338,0.3381,0.3381,0.3399,0.34,0.34,0.3401,0,0.353,0.3521,0.3517,0.351,0.3506,0.3499,0.3491,0.349,0.3468,0.3465,0.3461,0.3457,0.3448,0.3442,0.3433,0.3424,0.3409,0.3406,0.3408,0.3415,0.3421,0.3418,0.3368,0.3405,0.3405,0.3405,0.3404,0.3404,0.3562,0.3564,0.3552,0.3548,0.3539,0.3532,0.3532,0.352,0.3515,0.3507,0.3495,0.3492,0.348,0.3466,0.3458,0.3456,0.3447,0.345,0.3451,0.3452,0.3455,0.3421,0.3454,0.3454,0.3453,0.3453,0.3453,0,0.3602,0.3593,0.3589,0.3578,0.3575,0.356,0.355,0.3548,0.3546,0.3536,0.3531,0.3526,0.352,0.3504,0.3497,0.3498,0.349,0.3496,0.3496,0.3495,0.3463,0.3462,0.3502,0.3502,0.3502,0.3502,0.3502,0.3502,0.3622,0.3625,0.3615,0.3613,0.3604,0.3601,0.3596,0.359,0.3582,0.3577,0.3572,0.3562,0.3549,0.3541,0.3535,0.353,0.3529,0.3537,0.353,0.3502,0.3497,0.3492,0.3491,0.3537,0.3537,0.3562,0.3562,0.3562]},{"header":{"parameterUnit":"m.s-1","parameterCategory":1,"la1":30.2991,"la2":30.254,"lo1":-89.0895,"lo2":-89.0444,"dy":0.0017,"dx":0.0017,"nx":28,"ny":28,"refTime":"2024-02-21T09:00:00:Z","depth":0,"parameterNumber":3,"parameterNumberName":"V-component_of_WINDS"},"data":[0,0,0,0,0,0,0,0,0,0,0,0,0,0,0,0,0,0,0,0,0,0,0,0,0,0,0,0,0,0,0,0,0,0,0,0,0,0,0,0,0,0,0,0,0,0,0,0,0,0,0,0,0,0,0,0,0,0,0.6017,0.6016,0,0.5991,0.5991,0.599,0.5988,0.5988,0.5988,0.5988,0.5962,0.5961,0.596,0,0,0,0,0,0,0,0,0,0,0,0,0,0.6064,0.6063,0.6017,0.6016,0.6016,0.5991,0.5991,0.599,0.5988,0.5988,0.5988,0.5988,0.5962,0.5961,0.596,0,0,0,0,0,0,0,0,0,0,0,0,0,0.6042,0.6063,0.6017,0.6012,0.6011,0.5991,0.5991,0.599,0.5987,0.5988,0.5988,0.5989,0.5963,0.5961,0.596,0.5943,0,0,0.5955,0.5955,0,0,0,0,0,0,0,0,0.6043,0.604,0.6013,0.6012,0.6011,0.5993,0.5998,0.5974,0.5987,0.5996,0.5988,0.5989,0.5972,0.597,0.5964,0.5942,0.5941,0.5955,0.5954,0.5954,0.5953,0,0,0,0,0,0,0,0.6044,0.6041,0.6006,0.6012,0.6011,0.6011,0.6008,0.5993,0.5982,0.5996,0.5995,0.5992,0.5972,0.5965,0.5963,0.594,0.5955,0.5954,0.5953,0.5953,0.5904,0.5903,0,0,0,0,0,0,0.6047,0.6042,0.6007,0.6006,0.6028,0.601,0.6007,0.5998,0.5982,0.598,0.5992,0.5992,0.5968,0.5965,0.5962,0.5942,0.5954,0.5953,0.5952,0.5904,0.5904,0.5903,0,0,0,0,0,0,0.6048,0.6044,0.6008,0.6024,0.6019,0.6008,0.5999,0.5998,0.5991,0.598,0.5978,0.5988,0.5968,0.5964,0.5948,0.5941,0.5952,0.5951,0.5905,0.5904,0.5903,0.5901,0,0,0,0,0,0,0.6049,0.6044,0.6037,0.6024,0.6018,0.5994,0.5999,0.5997,0.5989,0.5989,0.5975,0.5973,0.5968,0.595,0.5947,0.5939,0.5949,0.5905,0.5904,0.5904,0.5901,0.59,0.5899,0,0,0,0,0,0.6051,0.6038,0.6037,0.6033,0.601,0.5994,0.5991,0.5985,0.5988,0.5982,0.5974,0.5974,0.5943,0.5949,0.5944,0.5937,0.5906,0.5905,0.5904,0.5902,0.59,0.5899,0,0,0,0,0,0,0.6051,0.6036,0.6035,0.6017,0.6007,0.5993,0.5984,0.5983,0.5972,0.5972,0.5966,0.5963,0.5947,0.594,0.5947,0.592,0.5924,0.5923,0.5924,0.5923,0.5922,0.5923,0.5948,0,0,0,0,0,0.6049,0.6036,0.6024,0.6009,0.6004,0.5995,0.5988,0.5985,0.5974,0.5969,0.5961,0.595,0.5938,0.593,0.5918,0.5901,0.5898,0.5893,0.5892,0.5891,0.5889,0.588,0.5878,0.59,0.59,0.59,0,0,0.6044,0.6034,0.6027,0.6009,0.6001,0.5988,0.5992,0.5979,0.5969,0.5967,0.5951,0.5945,0.5933,0.5916,0.5908,0.591,0.5883,0.589,0.5889,0.5888,0.5879,0.5876,0.5875,0.5899,0.5899,0.5899,0,0,0.6029,0.602,0.6007,0.5999,0.5986,0.5981,0.5978,0.5965,0.596,0.5944,0.5942,0.5932,0.5911,0.5902,0.5895,0.5879,0.5877,0.5875,0.5868,0.5859,0.5857,0.5856,0.5849,0.5847,0.5873,0.5873,0.5873,0,0.6024,0.6006,0.6,0.5987,0.598,0.5978,0.5964,0.5957,0.5941,0.5936,0.5938,0.5913,0.5904,0.5885,0.5881,0.5876,0.5872,0.5876,0.5858,0.5856,0.5855,0.5849,0.5846,0.5873,0.5873,0.5873,0.5873,0,0.6001,0.5989,0.5979,0.5964,0.5956,0.5943,0.5936,0.5928,0.5925,0.5919,0.5903,0.5894,0.588,0.5875,0.5873,0.5856,0.5858,0.5859,0.5864,0.5852,0.5847,0.5844,0.5873,0.5873,0.5873,0.5873,0,0,0.5984,0.5967,0.5964,0.5957,0.5944,0.5934,0.5921,0.5908,0.5901,0.5891,0.588,0.5863,0.5864,0.5856,0.5853,0.5845,0.5832,0.5847,0.5847,0.5845,0.5813,0.5812,0.5809,0.5832,0.5831,0.5831,0.5814,0,0.5968,0.5944,0.594,0.592,0.5908,0.5906,0.5895,0.5886,0.588,0.587,0.5864,0.5852,0.5855,0.585,0.5842,0.5835,0.5826,0.5837,0.5821,0.5821,0.5824,0.5806,0.5805,0.5789,0.5812,0.5812,0.5811,0,0.5945,0.5934,0.5913,0.5901,0.5896,0.5886,0.5874,0.5864,0.5854,0.585,0.5842,0.584,0.5827,0.5832,0.5814,0.5822,0.5816,0.5812,0.5811,0.5809,0.5815,0.5803,0.5784,0.5782,0.5808,0.5808,0.5808,0,0.5934,0.5915,0.5899,0.5894,0.588,0.5873,0.5867,0.5857,0.585,0.5839,0.5835,0.5823,0.5816,0.5807,0.5802,0.5807,0.5784,0.579,0.5781,0.5781,0.5776,0.5776,0.5755,0.5773,0.5773,0.5773,0.5773,0,0.5916,0.5903,0.5895,0.5885,0.5871,0.5866,0.5852,0.5846,0.5837,0.5827,0.5825,0.5816,0.5809,0.5799,0.5795,0.5781,0.5778,0.5775,0.5774,0.5775,0.5775,0.577,0.5771,0.5772,0.5772,0.5772,0.5773,0,0.5901,0.5895,0.5879,0.5867,0.5864,0.5854,0.5844,0.5836,0.5831,0.5818,0.5814,0.5806,0.5794,0.5788,0.5773,0.577,0.5754,0.5754,0.5757,0.5757,0.5749,0.5749,0.5723,0.5719,0.574,0.574,0.574,0,0.589,0.588,0.5868,0.586,0.5854,0.5843,0.5836,0.5831,0.5823,0.5811,0.5803,0.5791,0.5781,0.5762,0.5755,0.5743,0.5742,0.5734,0.5741,0.5742,0.5742,0.5742,0.5741,0.5733,0.5733,0.5732,0.5732,0,0.587,0.5867,0.5856,0.5845,0.5836,0.5826,0.5817,0.5812,0.5805,0.5797,0.5784,0.5777,0.5761,0.5749,0.5738,0.5732,0.5731,0.573,0.5728,0.5728,0.5731,0.5729,0.5754,0.5731,0.5731,0.5731,0.5731,0.5731,0.5856,0.5847,0.5837,0.5825,0.5818,0.581,0.5801,0.5795,0.5784,0.5771,0.5769,0.5756,0.5747,0.5731,0.5725,0.5714,0.5716,0.5713,0.5712,0.5711,0.571,0.5733,0.5712,0.5712,0.5712,0.5712,0.5712,0,0.5835,0.5829,0.5818,0.5806,0.5796,0.5797,0.5787,0.5779,0.5768,0.5759,0.5749,0.5735,0.5724,0.5716,0.5705,0.5698,0.5697,0.5695,0.5695,0.5694,0.5709,0.5712,0.5696,0.5696,0.5696,0.5696,0.5696,0.5696,0.5824,0.5809,0.5805,0.5787,0.5781,0.5768,0.5762,0.5755,0.5748,0.5732,0.5723,0.5718,0.571,0.5698,0.5687,0.5685,0.5681,0.5679,0.5677,0.5691,0.5693,0.5694,0.5697,0.5678,0.5678,0.5662,0.5662,0.5662]}]]